sat.trackr.live / text

‹ back to catalog

STARLINK-30942

NORAD 58441 · 2023-183E

PAYLOAD ACTIVE UNKNOWN

§ Identity

Operator
Country
US
Launch date
2023-11-28
Launch site
AFETR
Launch vehicle
Mass (kg)
RCS (m²)

Purposes: comms

External: N2YO · Heavens-Above · Gunter

§ Orbital elements

Epoch: 2026-09-20T15:14:59.853408Z

Period
94.27 min
Inclination
43.0031°
Eccentricity
0.0000983
Mean motion
15.27582286 rev/d
Perigee alt
482.4 km
Apogee alt
483.7 km
Semi-major
6,861.2 km
B*
9.1214e-6
RAAN
20.2548°
Arg perigee
282.4729°
Mean anomaly
77.6013°
Rev number
15,655

§ Raw data

STARLINK-309421 58441U 23183E   26263.63541497 -.00000011  00000+0  91214-5 0  99912 58441  43.0031  20.2548 0000983 282.4729  77.6013 15.27582286156552

JSON: /api/v1/satellites/58441 · /tle

For live sub-satellite position, see the globe view (requires WebGL).

§ Visibility from observer

Set your observer location to see the next 7 days of passes ≥ 10°. The values pass through the URL so the page stays shareable.

No JS? Fill the form by hand. The geolocation button needs JavaScript.